Regional Weather Roundup
Issued by NWS

Home | Current Version | Previous Version | Graphics & Text | Print | Product List | Glossary On
Versions: 1 2 3 4 5 6 7 8 9 10 11 12 13 14 15 16 17 18 19 20 21 22 23 24 25 26 27 28 29 30 31 32 33 34 35 36 37 38 39 40 41 42 43 44 45 46 47 48 49 50
000
ASUS43 KMKX 222321
RWRWI

WISCONSIN REGIONAL WEATHER ROUNDUP
NATIONAL WEATHER SERVICE MILWAUKEE/SULLIVAN WI
500 PM CST WED NOV 22 2017

NOTE: "FAIR" INDICATES FEW OR NO CLOUDS BELOW 12,000 FEET WITH NO
SIGNIFICANT WEATHER AND/OR OBSTRUCTIONS TO VISIBILITY.

WIZ001-002-006>008-014>016-023>028-230000-
NORTHWEST WISCONSIN

CITY           SKY/WX    TMP DP  RH WIND       PRES   REMARKS
SUPERIOR ARPT  CLOUDY    23  17  76 SW7       30.06F WCI  15
ASHLAND        CLOUDY    25  12  58 SW10      30.08F WCI  15
HAYWARD        CLOUDY    22  14  71 S12       30.07F WCI  10
SIREN          CLOUDY    23  18  81 S8        30.08F WCI  14
CUMBERLAND     FLURRIES  21  18  86 S8        30.09F WCI  12
RICE LAKE      LGT SNOW  23  19  84 SE8       30.12F WCI  14
CHETEK         FLURRIES  22  18  81 S5        30.13F WCI  16
LADYSMITH      CLOUDY    23  17  79 S8        30.12F WCI  14
EAU CLAIRE     CLOUDY    24  16  71 S6        30.13F WCI  17
MENOMONIE      CLOUDY    27  16  62 SE5       30.12F WCI  22
NEW RICHMOND   CLOUDY    25  17  72 SE7       30.10F WCI  18
OSCEOLA        FLURRIES  25  20  83 SE7       30.11F WCI  17
$$

WIZ003>005-009-010-017-018-230000-
NORTH CENTRAL WISCONSIN

CITY           SKY/WX    TMP DP  RH WIND       PRES   REMARKS
MANITOWISH WTR CLOUDY    22  11  64 SW8       30.06S WCI  12
ARBOR VITAE    CLOUDY    24  14  63 SW7       30.06F WCI  16
WOODRUFF       CLOUDY    24  14  63 SW7       30.06F WCI  16
RHINELANDER    CLOUDY    24  13  62 SW9       30.08F WCI  14
EAGLE RIVER    CLOUDY    24  11  58 SW6       30.05F WCI  17
LAND O LAKES   CLOUDY    24  12  60 SW5       30.07F WCI  18
PHILLIPS       CLOUDY    22  13  67 S9        30.07F WCI  11
TOMAHAWK       CLOUDY    23  13  63 CALM      30.11F
MEDFORD        CLOUDY    23  12  63 SW6       30.11F WCI  16
MERRILL        CLOUDY    25  14  62 SW8       30.12F WCI  16
$$

WIZ029-030-035-036-043>047-230000-
CENTRAL WISCONSIN

CITY           SKY/WX    TMP DP  RH WIND       PRES   REMARKS
WAUSAU         CLOUDY    25  13  60 SW7       30.13F WCI  17
MOSINEE        CLOUDY    25  14  63 S7        30.15F WCI  17
MARSHFIELD     CLOUDY    25  11  55 SW7       30.12F WCI  17
STEVENS POINT  CLOUDY    25  12  57 SW7       30.16F WCI  17
WAUPACA        CLOUDY    31  14  49 S5        30.17F WCI  26
WAUTOMA        CLOUDY    29  14  53 SW6       30.18F WCI  23
WISC RAPIDS    CLOUDY    28  13  53 SW7       30.17F WCI  21
CAMP DOUGLAS   NOT AVBL
$$

WIZ011>013-019>022-031-037>040-048>050-230000-
NORTHEAST WISCONSIN

CITY           SKY/WX    TMP DP  RH WIND       PRES   REMARKS
ANTIGO         CLOUDY    24  13  62 SW9       30.11F WCI  15
SHAWANO        CLOUDY    30  14  50 SW3       30.16F
OCONTO         CLOUDY    28  13  52 SW5       30.17F WCI  23
STURGEON BAY   CLOUDY    27  16  63 S12       30.18F WCI  17
GREEN BAY      CLOUDY    29  18  63 SW8       30.19F WCI  21
MANITOWOC      CLOUDY    29  17  61 W5        30.21F WCI  24
APPLETON       CLOUDY    28  12  50 SW7       30.16F WCI  21
CLINTONVILLE   CLOUDY    28  12  50 SW5       30.17F WCI  23
OSHKOSH        CLOUDY    29  16  58 SW5       30.19F WCI  24
$$

WIZ032>034-041-042-053>061-230000-
SOUTHWEST WISCONSIN

CITY           SKY/WX    TMP DP  RH WIND       PRES   REMARKS
LA CROSSE      CLOUDY    31  14  49 S8        30.17F WCI  23
SPARTA         CLOUDY    29  15  55 CALM      30.18F
VIROQUA        CLOUDY    28  18  64 S5        30.15F WCI  23
BOSCOBEL       CLOUDY    32  14  47 S5        30.20F WCI  27
PRAIRIE DU CHI CLOUDY    32  13  45 S3        30.19F
PLATTEVILLE    MOCLDY    32  18  56 SW7       30.20F WCI  25
$$

WIZ056-057-062-063-064-067-068-230000-
SOUTH CENTRAL WISCONSIN

CITY           SKY/WX    TMP DP  RH WIND       PRES   REMARKS
REEDSBURG      CLOUDY    29  15  55 SW5       30.18F WCI  24
BARABOO/DELLS  CLOUDY    29  15  54 SW6       30.18F WCI  23
LONE ROCK      CLOUDY    30  17  58 S3        30.20F
MINERAL POINT  MOCLDY    32  18  55 CALM      30.18F
MADISON        CLOUDY    30  15  53 SW5       30.20F WCI  25
MIDDLETON      CLOUDY    32  16  52 W5        30.21S WCI  27
WATERTOWN      PTCLDY    29  17  59 SW6       30.21F WCI  23
MONROE         CLOUDY    32  16  51 SW8       30.20F WCI  25
JANESVILLE     MOCLDY    32  18  55 SW6       30.22F WCI  26
$$

WIZ051-052-058>065-066-070>072-230000-
SOUTHEAST WISCONSIN

CITY           SKY/WX    TMP DP  RH WIND       PRES   REMARKS
MILWAUKEE      CLOUDY    32  15  49 W7        30.23S WCI  26
WAUKESHA       CLEAR     28  12  50 SW5       30.23S WCI  23
MILWAUKEE/TIMM CLEAR     30  12  47 SW6       30.23S WCI  24
RACINE         MOCLDY    30  15  53 SW3       30.24F
BURLINGTON     CLOUDY    31  21  65 W3        30.23R
KENOSHA        PTCLDY    28  16  60 W6        30.23F WCI  22
FOND DU LAC    CLOUDY    30  14  51 SW7       30.20F WCI  23
SHEBOYGAN      PTCLDY    29  16  58 SW8       30.21F WCI  21
WEST BEND      PTCLDY    30  16  55 SW7       30.20F WCI  23
JUNEAU         PTCLDY    29  16  59 SW7       30.22S WCI  22
$$

LSZ147-162-230000-
LAKE SUPERIOR

STATION/POSITION TIME  TEMP    WIND        PRES    WAVE
                       AIR SEA DIR/SP/G            HT/PER
                 (UTC) (F)     (DEG/KT/KT) (MB)    (FT/S)
DEVILS ISLAND    2300   26     200/ 13/ 17 1019.1F
SAXON HARBOR     2240   26     200/  8/ 13 1018.6F
$$

LMZ867-665-643>646-230000-
LAKE MICHIGAN

STATION/POSITION TIME  TEMP    WIND        PRES    WAVE
                       AIR SEA DIR/SP/G            HT/PER
                 (UTC) (F)     (DEG/KT/KT) (MB)    (FT/S)
N MID LAKE BUOY  2250   31 47  220/ 16/ 21 1023.0F   2/ 3
NORTHPORT PIER   2255   27     180/  2/  9 1021.7F
KEWAUNEE LAKESHO 2254   28     220/  4/  7 1021.8F
SHEBOYGAN LAKESH 2300   31     230/  9/ 11 1023.8F
PORT WASHINGTON  2240   31     250/  5/  6 1024.4S
MILWAUKEE LAKESH 2300   32     260/  8/ 10   N/A
S MID LAKE BUOY  2250   33 47  240/ 10/ 14 1024.8F   2/ 6
KENOSHA   LAKESH 2300   32     250/  5/  7 1024.0
$$

TC  - TEMPERATURE IN CELSIUS
VSB - VISIBILITY IN STATUTE MILES
WCI - WIND CHILL INDEX
HX  - HEAT INDEX





USA.gov is the U.S. government's official web portal to all federal, state and local government web resources and services.